| time (UTC) | temp F | wind direction | speed MPH | gust MPH | rain 1hr in | rain 24hr in | rain mn in | humidity % | barometer mb |
| 20260504151006 | 66 | 246 | 7.0 | 17.0 | 0.00 | 0.00 | 0.00 | 45 | 1013.5 |
| 20260504141005 | 63 | 230 | 5.0 | 11.0 | 0.00 | 0.00 | 0.00 | 51 | 1013.8 |
| 20260504140506 | 63 | 240 | 6.0 | 14.0 | 0.00 | 0.00 | 0.00 | 54 | 1013.7 |
| 20260504110505 | 51 | 225 | 4.0 | 10.0 | 0.00 | 0.00 | 0.00 | 73 | 1015.1 |
| 20260504100507 | 49 | 219 | 3.0 | 9.0 | 0.00 | 0.00 | 0.00 | 70 | 1015.1 |
| 20260504082005 | 46 | 218 | 1.0 | 4.0 | 0.00 | 0.00 | 0.00 | 66 | 1014.9 |
| 20260504081006 | 46 | 224 | 2.0 | 7.0 | 0.00 | 0.00 | 0.00 | 66 | 1014.9 |
| 20260504080505 | 46 | 233 | 2.0 | 6.0 | 0.00 | 0.00 | 0.00 | 65 | 1014.8 |
| 20260504050505 | 46 | 232 | 0.0 | 3.0 | 0.00 | 0.00 | 0.00 | 61 | 1014.3 |
| 20260504050005 | 47 | 229 | 1.0 | 4.0 | 0.00 | 0.00 | 0.00 | 60 | 1014.4 |
| 20260504045505 | 48 | 228 | 1.0 | 4.0 | 0.00 | 0.00 | 0.00 | 58 | 1014.4 |
| 20260504045006 | 48 | 229 | 1.0 | 5.0 | 0.00 | 0.00 | 0.00 | 58 | 1014.4 |
| 20260504044505 | 48 | 231 | 1.0 | 5.0 | 0.00 | 0.00 | 0.00 | 57 | 1014.3 |
| 20260504044006 | 48 | 220 | 1.0 | 4.0 | 0.00 | 0.00 | 0.00 | 58 | 1014.4 |
| 20260504043505 | 48 | 212 | 0.0 | 3.0 | 0.00 | 0.00 | 0.00 | 57 | 1014.2 |
| 20260504043005 | 48 | 200 | 0.0 | 3.0 | 0.00 | 0.00 | 0.00 | 57 | 1014.2 |
| 20260504042505 | 48 | 214 | 1.0 | 4.0 | 0.00 | 0.00 | 0.00 | 57 | 1014.2 |
| 20260504042006 | 49 | 225 | 1.0 | 4.0 | 0.00 | 0.00 | 0.00 | 56 | 1014.1 |
| 20260504041505 | 48 | 232 | 1.0 | 3.0 | 0.00 | 0.00 | 0.00 | 56 | 1014.0 |
| 20260504041006 | 48 | 220 | 1.0 | 4.0 | 0.00 | 0.00 | 0.00 | 56 | 1014.0 |
| 20260504040506 | 49 | 211 | 0.0 | 4.0 | 0.00 | 0.00 | 0.00 | 55 | 1014.0 |
| 20260504040010 | 49 | 209 | 0.0 | 2.0 | 0.00 | 0.00 | 0.00 | 55 | 1014.0 |
| 20260504035505 | 49 | 223 | 1.0 | 4.0 | 0.00 | 0.00 | 0.00 | 54 | 1013.9 |
| 20260504035006 | 50 | 227 | 1.0 | 5.0 | 0.00 | 0.00 | 0.00 | 52 | 1013.9 |
| 20260504034505 | 50 | 228 | 1.0 | 6.0 | 0.00 | 0.00 | 0.00 | 51 | 1013.8 |
| 20260504033505 | 50 | 219 | 1.0 | 5.0 | 0.00 | 0.00 | 0.00 | 52 | 1013.8 |
| 20260504033005 | 50 | 227 | 2.0 | 5.0 | 0.00 | 0.00 | 0.00 | 52 | 1013.7 |
| 20260504032505 | 51 | 237 | 1.0 | 5.0 | 0.00 | 0.00 | 0.00 | 50 | 1013.6 |
| 20260504032005 | 51 | 237 | 1.0 | 5.0 | 0.00 | 0.00 | 0.00 | 50 | 1013.6 |
| 20260504031507 | 51 | 235 | 1.0 | 5.0 | 0.00 | 0.00 | 0.00 | 51 | 1013.6 |
| 20260504031007 | 51 | 234 | 1.0 | 5.0 | 0.00 | 0.00 | 0.00 | 51 | 1013.6 |
| 20260504030505 | 51 | 231 | 1.0 | 4.0 | 0.00 | 0.00 | 0.00 | 51 | 1013.7 |
| 20260504030005 | 51 | 231 | 1.0 | 4.0 | 0.00 | 0.00 | 0.00 | 51 | 1013.7 |
| 20260504025005 | 50 | 236 | 1.0 | 4.0 | 0.00 | 0.00 | 0.00 | 52 | 1013.7 |
| 20260504024506 | 50 | 228 | 1.0 | 4.0 | 0.00 | 0.00 | 0.00 | 53 | 1013.7 |
| 20260504024006 | 49 | 213 | 1.0 | 4.0 | 0.00 | 0.00 | 0.00 | 56 | 1013.7 |
| 20260504022505 | 49 | 248 | 0.0 | 1.0 | 0.00 | 0.00 | 0.00 | 58 | 1013.7 |
| 20260504022006 | 50 | 237 | 0.0 | 1.0 | 0.00 | 0.00 | 0.00 | 56 | 1013.7 |
| 20260504021507 | 50 | 258 | 0.0 | 1.0 | 0.00 | 0.00 | 0.00 | 54 | 1013.7 |
| 20260504021006 | 50 | 217 | 0.0 | 3.0 | 0.00 | 0.00 | 0.00 | 51 | 1013.7 |
| 20260504020505 | 51 | 217 | 0.0 | 3.0 | 0.00 | 0.00 | 0.00 | 50 | 1013.6 |
| 20260504015506 | 51 | 248 | 1.0 | 4.0 | 0.00 | 0.00 | 0.00 | 48 | 1013.5 |
| 20260504015005 | 51 | 246 | 1.0 | 4.0 | 0.00 | 0.00 | 0.00 | 48 | 1013.6 |
| 20260504014506 | 51 | 233 | 1.0 | 3.0 | 0.00 | 0.00 | 0.00 | 48 | 1013.5 |
| 20260504013006 | 53 | 233 | 1.0 | 4.0 | 0.00 | 0.00 | 0.00 | 45 | 1013.4 |
| 20260504012007 | 54 | 250 | 1.0 | 5.0 | 0.00 | 0.00 | 0.00 | 42 | 1013.3 |
| 20260504011506 | 54 | 255 | 1.0 | 5.0 | 0.00 | 0.00 | 0.00 | 41 | 1013.2 |
| 20260504011005 | 54 | 250 | 1.0 | 5.0 | 0.00 | 0.00 | 0.00 | 42 | 1013.2 |
| 20260504010505 | 54 | 248 | 2.0 | 5.0 | 0.00 | 0.00 | 0.00 | 41 | 1013.1 |
| 20260504010007 | 54 | 247 | 1.0 | 5.0 | 0.00 | 0.00 | 0.00 | 41 | 1013.0 |
| 20260504005506 | 54 | 246 | 1.0 | 3.0 | 0.00 | 0.00 | 0.00 | 42 | 1012.9 |
| 20260504004505 | 54 | 250 | 1.0 | 4.0 | 0.00 | 0.00 | 0.00 | 41 | 1012.8 |
| 20260504004006 | 55 | 244 | 1.0 | 4.0 | 0.00 | 0.00 | 0.00 | 39 | 1012.7 |
| 20260504003006 | 55 | 241 | 1.0 | 4.0 | 0.00 | 0.00 | 0.00 | 38 | 1012.6 |
| 20260504002506 | 56 | 249 | 1.0 | 5.0 | 0.00 | 0.00 | 0.00 | 37 | 1012.5 |
| 20260504001506 | 57 | 249 | 2.0 | 7.0 | 0.00 | 0.00 | 0.00 | 36 | 1012.4 |
| 20260504001006 | 57 | 264 | 2.0 | 5.0 | 0.00 | 0.00 | 0.00 | 35 | 1012.4 |
| 20260504000506 | 57 | 268 | 2.0 | 7.0 | 0.00 | 0.00 | 0.00 | 34 | 1012.5 |
| 20260504000006 | 58 | 257 | 3.0 | 9.0 | 0.00 | 0.00 | 0.00 | 33 | 1012.4 |
| 20260503235506 | 58 | 257 | 3.0 | 9.0 | 0.00 | 0.00 | 0.00 | 33 | 1012.3 |
| 20260503235006 | 58 | 266 | 2.0 | 8.0 | 0.00 | 0.00 | 0.00 | 34 | 1012.3 |
| 20260503233506 | 59 | 270 | 3.0 | 12.0 | 0.00 | 0.00 | 0.00 | 32 | 1012.1 |
| 20260503233006 | 58 | 270 | 2.0 | 10.0 | 0.00 | 0.00 | 0.00 | 33 | 1012.0 |
| 20260503232006 | 59 | 301 | 2.0 | 13.0 | 0.00 | 0.00 | 0.00 | 31 | 1011.9 |
| 20260503231006 | 59 | 288 | 2.0 | 10.0 | 0.00 | 0.00 | 0.00 | 32 | 1011.8 |
| 20260503230506 | 59 | 283 | 2.0 | 13.0 | 0.00 | 0.00 | 0.00 | 30 | 1011.8 |
| 20260503230007 | 59 | 273 | 3.0 | 13.0 | 0.00 | 0.00 | 0.00 | 31 | 1011.8 |
| 20260503225507 | 59 | 277 | 5.0 | 16.0 | 0.00 | 0.00 | 0.00 | 30 | 1011.8 |
| 20260503224505 | 60 | 290 | 3.0 | 11.0 | 0.00 | 0.00 | 0.00 | 30 | 1011.8 |
| 20260503223506 | 60 | 321 | 3.0 | 11.0 | 0.00 | 0.00 | 0.00 | 30 | 1011.8 |
| 20260503223006 | 60 | 319 | 4.0 | 11.0 | 0.00 | 0.00 | 0.00 | 29 | 1011.7 |
| 20260503222505 | 60 | 316 | 3.0 | 8.0 | 0.00 | 0.00 | 0.00 | 30 | 1011.7 |
| 20260503222006 | 60 | 308 | 3.0 | 9.0 | 0.00 | 0.00 | 0.00 | 30 | 1011.7 |
| 20260503221506 | 60 | 301 | 3.0 | 9.0 | 0.00 | 0.00 | 0.00 | 30 | 1011.7 |
| 20260503221010 | 60 | 294 | 3.0 | 10.0 | 0.00 | 0.00 | 0.00 | 30 | 1011.7 |
| 20260503220505 | 60 | 279 | 4.0 | 11.0 | 0.00 | 0.00 | 0.00 | 29 | 1011.7 |
| 20260503220006 | 60 | 280 | 3.0 | 11.0 | 0.00 | 0.00 | 0.00 | 30 | 1011.7 |
| 20260503215506 | 60 | 293 | 3.0 | 9.0 | 0.00 | 0.00 | 0.00 | 30 | 1011.8 |
| 20260503215006 | 60 | 281 | 3.0 | 14.0 | 0.00 | 0.00 | 0.00 | 32 | 1011.8 |
| 20260503214506 | 60 | 287 | 4.0 | 14.0 | 0.00 | 0.00 | 0.00 | 30 | 1011.8 |
| 20260503214006 | 60 | 295 | 4.0 | 10.0 | 0.00 | 0.00 | 0.00 | 31 | 1011.7 |
| 20260503213508 | 60 | 291 | 4.0 | 12.0 | 0.00 | 0.00 | 0.00 | 30 | 1011.8 |
| 20260503213007 | 60 | 289 | 4.0 | 12.0 | 0.00 | 0.00 | 0.00 | 29 | 1011.9 |
| 20260503212005 | 60 | 304 | 4.0 | 12.0 | 0.00 | 0.00 | 0.00 | 30 | 1011.7 |
| 20260503211506 | 60 | 306 | 4.0 | 13.0 | 0.00 | 0.00 | 0.00 | 29 | 1011.8 |
| 20260503211006 | 60 | 310 | 5.0 | 13.0 | 0.00 | 0.00 | 0.00 | 30 | 1011.8 |
| 20260503210506 | 60 | 310 | 4.0 | 12.0 | 0.00 | 0.00 | 0.00 | 30 | 1011.8 |
| 20260503205505 | 60 | 282 | 5.0 | 19.0 | 0.00 | 0.00 | 0.00 | 31 | 1011.8 |
| 20260503205005 | 60 | 297 | 4.0 | 19.0 | 0.00 | 0.00 | 0.00 | 30 | 1011.9 |
| 20260503204506 | 60 | 306 | 4.0 | 10.0 | 0.00 | 0.00 | 0.00 | 33 | 1012.0 |
| 20260503203506 | 59 | 292 | 4.0 | 16.0 | 0.00 | 0.00 | 0.00 | 32 | 1012.0 |
| 20260503203006 | 60 | 284 | 3.0 | 10.0 | 0.00 | 0.00 | 0.00 | 33 | 1012.0 |
| 20260503202506 | 60 | 296 | 3.0 | 10.0 | 0.00 | 0.00 | 0.00 | 34 | 1012.0 |
| 20260503202006 | 59 | 285 | 5.0 | 18.0 | 0.00 | 0.00 | 0.00 | 33 | 1012.0 |
| 20260503201506 | 61 | 274 | 5.0 | 18.0 | 0.00 | 0.00 | 0.00 | 31 | 1012.1 |
| 20260503201005 | 61 | 279 | 4.0 | 16.0 | 0.00 | 0.00 | 0.00 | 32 | 1012.1 |
| 20260503200505 | 60 | 299 | 4.0 | 15.0 | 0.00 | 0.00 | 0.00 | 31 | 1012.0 |
| 20260503200006 | 60 | 316 | 5.0 | 16.0 | 0.00 | 0.00 | 0.00 | 31 | 1012.0 |
| 20260503195006 | 60 | 295 | 5.0 | 17.0 | 0.00 | 0.00 | 0.00 | 31 | 1012.1 |
| 20260503194506 | 60 | 276 | 5.0 | 11.0 | 0.00 | 0.00 | 0.00 | 33 | 1012.1 |
| 20260503194006 | 60 | 292 | 5.0 | 11.0 | 0.00 | 0.00 | 0.00 | 32 | 1012.2 |
| 20260503193006 | 59 | 296 | 5.0 | 14.0 | 0.00 | 0.00 | 0.00 | 31 | 1012.2 |
| 20260503192006 | 59 | 289 | 6.0 | 17.0 | 0.00 | 0.00 | 0.00 | 33 | 1012.4 |
| 20260503191506 | 59 | 277 | 4.0 | 17.0 | 0.00 | 0.00 | 0.00 | 32 | 1012.3 |
| 20260503191006 | 59 | 290 | 4.0 | 11.0 | 0.00 | 0.00 | 0.00 | 35 | 1012.4 |
| 20260503190006 | 59 | 297 | 4.0 | 18.0 | 0.00 | 0.00 | 0.00 | 32 | 1012.6 |
| 20260503185006 | 58 | 313 | 6.0 | 14.0 | 0.00 | 0.00 | 0.00 | 33 | 1012.6 |
| 20260503184506 | 57 | 315 | 6.0 | 17.0 | 0.00 | 0.00 | 0.00 | 33 | 1012.7 |
| 20260503184006 | 58 | 315 | 5.0 | 17.0 | 0.00 | 0.00 | 0.00 | 33 | 1012.7 |
| 20260503183505 | 58 | 307 | 4.0 | 11.0 | 0.00 | 0.00 | 0.00 | 33 | 1012.7 |
| 20260503183006 | 58 | 311 | 4.0 | 11.0 | 0.00 | 0.00 | 0.00 | 36 | 1012.8 |
| 20260503182507 | 57 | 315 | 4.0 | 11.0 | 0.00 | 0.00 | 0.00 | 34 | 1012.8 |
| 20260503182006 | 58 | 306 | 4.0 | 13.0 | 0.00 | 0.00 | 0.00 | 34 | 1012.9 |
| 20260503181506 | 58 | 288 | 4.0 | 14.0 | 0.00 | 0.00 | 0.00 | 33 | 1012.9 |
| 20260503180006 | 56 | 330 | 3.0 | 11.0 | 0.00 | 0.00 | 0.00 | 37 | 1013.1 |
| 20260503175505 | 56 | 307 | 3.0 | 11.0 | 0.00 | 0.00 | 0.00 | 39 | 1013.1 |
| 20260503175007 | 55 | 309 | 4.0 | 11.0 | 0.00 | 0.00 | 0.00 | 39 | 1013.2 |
| 20260503174006 | 56 | 310 | 5.0 | 17.0 | 0.00 | 0.00 | 0.00 | 37 | 1013.1 |
| 20260503173507 | 56 | 304 | 5.0 | 17.0 | 0.00 | 0.00 | 0.00 | 36 | 1013.3 |
| 20260503173006 | 56 | 281 | 3.0 | 12.0 | 0.00 | 0.00 | 0.00 | 40 | 1013.3 |
| 20260503172506 | 56 | 302 | 3.0 | 15.0 | 0.00 | 0.00 | 0.00 | 41 | 1013.2 |
| 20260503172006 | 55 | 312 | 4.0 | 15.0 | 0.00 | 0.00 | 0.00 | 40 | 1013.2 |
| 20260503171506 | 54 | 305 | 4.0 | 10.0 | 0.00 | 0.00 | 0.00 | 38 | 1013.3 |
| 20260503171007 | 54 | 305 | 4.0 | 9.0 | 0.00 | 0.00 | 0.00 | 40 | 1013.3 |
| 20260503170506 | 54 | 302 | 4.0 | 11.0 | 0.00 | 0.00 | 0.00 | 40 | 1013.4 |